• In Österreich
  • Länderverzeichnis
  • Für 7 Tage
  • Wassertemperatur
  • Satellitenkarten
  • Wetterkarte
  • News
  • Widgets
  • user-avatar
    Anmelden

    Stündliche Wetter Solhan

    Heute, 24 Februar, Samstag

    Zeit Temperatur Niederschläge Wind Luftdruck Luftfeuchtigkeit
    00:00 -2°C° 0 mm 2 m/S 628 mmHg 72%
    01:00 -2°C° 0,1 mm 2 m/S 628 mmHg 72%
    02:00 -2°C° 0,1 mm 2 m/S 628 mmHg 73%
    03:00 -1°C° 0 mm 1 m/S 628 mmHg 72%
    04:00 -1°C° 0,1 mm 1 m/S 628 mmHg 72%
    05:00 -1°C° 0,1 mm 1 m/S 628 mmHg 73%
    06:00 -3°C° 0,1 mm 2 m/S 628 mmHg 74%
    07:00 -1°C° 0,1 mm 1 m/S 628 mmHg 73%
    08:00 0°C° 0,1 mm 1 m/S 628 mmHg 72%
    09:00 +1°C° 0,1 mm 1 m/S 629 mmHg 71%
    10:00 +2°C° 0 mm 1 m/S 629 mmHg 71%
    11:00 +3°C° 0 mm 1 m/S 629 mmHg 71%
    12:00 +3°C° 0 mm 0 m/S 629 mmHg 71%
    13:00 +4°C° 0 mm 0 m/S 629 mmHg 71%
    14:00 +4°C° 0 mm 0 m/S 629 mmHg 70%
    15:00 +4°C° 0 mm 0 m/S 628 mmHg 70%
    16:00 +3°C° 0 mm 0 m/S 628 mmHg 70%
    17:00 +2°C° 0 mm 0 m/S 628 mmHg 70%
    18:00 +1°C° 0 mm 0 m/S 628 mmHg 70%
    19:00 +2°C° 0 mm 1 m/S 628 mmHg 71%
    20:00 +1°C° 0 mm 1 m/S 628 mmHg 72%
    21:00 +1°C° 0 mm 1 m/S 628 mmHg 73%
    22:00 +1°C° 0 mm 1 m/S 628 mmHg 73%
    23:00 0°C° 0 mm 1 m/S 628 mmHg 74%

    Morgen, 25 Februar, Sonntag

    Zeit Temperatur Niederschläge Wind Luftdruck Luftfeuchtigkeit
    00:00 0°C° 0 mm 1 m/S 628 mmHg 75%
    01:00 0°C° 0 mm 1 m/S 628 mmHg 76%
    02:00 0°C° 0 mm 1 m/S 628 mmHg 78%
    03:00 0°C° 0 mm 1 m/S 628 mmHg 79%
    04:00 0°C° 0 mm 1 m/S 628 mmHg 81%
    05:00 0°C° 0 mm 1 m/S 628 mmHg 84%
    06:00 +1°C° 0 mm 1 m/S 629 mmHg 86%
    07:00 +1°C° 0 mm 1 m/S 629 mmHg 85%
    08:00 +2°C° 0 mm 1 m/S 629 mmHg 84%
    09:00 +2°C° 0 mm 2 m/S 629 mmHg 84%
    10:00 +2°C° 0,1 mm 2 m/S 629 mmHg 83%
    11:00 +3°C° 0,1 mm 2 m/S 628 mmHg 82%
    12:00 +3°C° 0,1 mm 3 m/S 628 mmHg 81%
    13:00 +3°C° 0,4 mm 3 m/S 628 mmHg 82%
    14:00 +3°C° 0,4 mm 3 m/S 627 mmHg 82%
    15:00 +3°C° 0,4 mm 3 m/S 627 mmHg 83%
    16:00 +3°C° 1,3 mm 3 m/S 627 mmHg 85%
    17:00 +2°C° 1,3 mm 3 m/S 627 mmHg 88%
    18:00 +2°C° 1,3 mm 3 m/S 627 mmHg 90%
    19:00 +3°C° 2,2 mm 2 m/S 627 mmHg 91%
    20:00 +2°C° 2,2 mm 2 m/S 627 mmHg 92%
    21:00 +2°C° 2,2 mm 2 m/S 627 mmHg 93%
    22:00 +2°C° 1,6 mm 2 m/S 627 mmHg 93%
    23:00 +2°C° 1,6 mm 2 m/S 627 mmHg 94%

    übermorgen, 26 Februar, Montag

    Zeit Temperatur Niederschläge Wind Luftdruck Luftfeuchtigkeit
    00:00 +2°C° 1,6 mm 2 m/S 627 mmHg 94%
    01:00 +2°C° 0,4 mm 2 m/S 627 mmHg 94%
    02:00 +2°C° 0,4 mm 2 m/S 627 mmHg 94%
    03:00 +3°C° 0,4 mm 1 m/S 627 mmHg 94%
    04:00 +2°C° 0,1 mm 1 m/S 627 mmHg 94%
    05:00 +2°C° 0,1 mm 1 m/S 627 mmHg 94%
    06:00 +2°C° 0,1 mm 1 m/S 627 mmHg 94%
    07:00 +2°C° 0,1 mm 1 m/S 627 mmHg 93%
    08:00 +3°C° 0,1 mm 1 m/S 628 mmHg 93%
    09:00 +3°C° 0,1 mm 1 m/S 628 mmHg 92%
    10:00 +4°C° 0,1 mm 1 m/S 628 mmHg 90%
    11:00 +4°C° 0,1 mm 1 m/S 628 mmHg 89%
    12:00 +5°C° 0,1 mm 1 m/S 628 mmHg 87%
    13:00 +5°C° 0,2 mm 1 m/S 628 mmHg 86%
    14:00 +5°C° 0,2 mm 1 m/S 627 mmHg 85%
    15:00 +5°C° 0,2 mm 1 m/S 627 mmHg 84%
    16:00 +4°C° 0,2 mm 1 m/S 627 mmHg 84%
    17:00 +3°C° 0,2 mm 1 m/S 627 mmHg 84%
    18:00 +3°C° 0,2 mm 1 m/S 627 mmHg 84%
    19:00 +2°C° 0,2 mm 1 m/S 627 mmHg 85%
    20:00 +2°C° 0,2 mm 1 m/S 628 mmHg 86%
    21:00 +2°C° 0,2 mm 1 m/S 628 mmHg 87%
    22:00 +2°C° 0,3 mm 1 m/S 628 mmHg 88%
    23:00 +2°C° 0,3 mm 1 m/S 628 mmHg 89%

    27 Februar, Dienstag

    Zeit Temperatur Niederschläge Wind Luftdruck Luftfeuchtigkeit
    00:00 +2°C° 0,3 mm 1 m/S 629 mmHg 90%
    01:00 +1°C° 0,4 mm 2 m/S 629 mmHg 91%
    02:00 +1°C° 0,4 mm 2 m/S 629 mmHg 91%
    03:00 +1°C° 0,4 mm 2 m/S 629 mmHg 92%
    04:00 +1°C° 0,4 mm 2 m/S 629 mmHg 93%
    05:00 +1°C° 0,4 mm 2 m/S 629 mmHg 93%
    06:00 +1°C° 0,4 mm 2 m/S 629 mmHg 93%
    07:00 +2°C° 0,3 mm 2 m/S 629 mmHg 93%
    08:00 +2°C° 0,3 mm 2 m/S 630 mmHg 93%
    09:00 +2°C° 0,3 mm 2 m/S 630 mmHg 92%
    10:00 +3°C° 0,6 mm 2 m/S 630 mmHg 92%
    11:00 +3°C° 0,6 mm 2 m/S 630 mmHg 91%
    12:00 +3°C° 0,6 mm 2 m/S 629 mmHg 91%
    13:00 +3°C° 0,5 mm 2 m/S 629 mmHg 90%
    14:00 +4°C° 0,5 mm 2 m/S 629 mmHg 90%
    15:00 +4°C° 0,5 mm 2 m/S 629 mmHg 89%
    16:00 +4°C° 0,3 mm 2 m/S 629 mmHg 89%
    17:00 +4°C° 0,3 mm 1 m/S 630 mmHg 90%
    18:00 +4°C° 0,3 mm 1 m/S 630 mmHg 90%
    19:00 +4°C° 0,2 mm 1 m/S 630 mmHg 90%
    20:00 +4°C° 0,2 mm 1 m/S 631 mmHg 91%
    21:00 +4°C° 0,2 mm 1 m/S 631 mmHg 92%
    22:00 +3°C° 0,2 mm 1 m/S 631 mmHg 92%
    23:00 +3°C° 0,2 mm 1 m/S 631 mmHg 91%

    28 Februar, Mittwoch

    Zeit Temperatur Niederschläge Wind Luftdruck Luftfeuchtigkeit
    00:00 +3°C° 0,2 mm 1 m/S 631 mmHg 91%
    01:00 +3°C° 0,4 mm 1 m/S 631 mmHg 91%
    02:00 +3°C° 0,4 mm 1 m/S 632 mmHg 91%
    03:00 +3°C° 0,4 mm 1 m/S 632 mmHg 91%
    04:00 +3°C° 0,3 mm 1 m/S 632 mmHg 91%
    05:00 +3°C° 0,3 mm 1 m/S 632 mmHg 91%
    06:00 +3°C° 0,3 mm 1 m/S 632 mmHg 91%
    07:00 +3°C° 0,1 mm 1 m/S 633 mmHg 90%
    08:00 +4°C° 0,1 mm 1 m/S 633 mmHg 89%
    09:00 +4°C° 0,1 mm 1 m/S 633 mmHg 88%
    10:00 +4°C° 0 mm 1 m/S 633 mmHg 87%
    11:00 +5°C° 0 mm 1 m/S 633 mmHg 85%
    12:00 +6°C° 0 mm 1 m/S 633 mmHg 84%
    13:00 +6°C° 0 mm 1 m/S 633 mmHg 83%
    14:00 +6°C° 0 mm 1 m/S 633 mmHg 82%
    15:00 +6°C° 0 mm 1 m/S 632 mmHg 82%
    16:00 +6°C° 0 mm 1 m/S 632 mmHg 80%
    17:00 +5°C° 0 mm 1 m/S 632 mmHg 78%
    18:00 +4°C° 0 mm 1 m/S 632 mmHg 77%
    19:00 +4°C° 0 mm 1 m/S 632 mmHg 77%
    20:00 +3°C° 0 mm 1 m/S 632 mmHg 78%
    21:00 +2°C° 0 mm 1 m/S 632 mmHg 79%
    22:00 +2°C° 0 mm 1 m/S 632 mmHg 79%
    23:00 +1°C° 0 mm 1 m/S 632 mmHg 79%

    1 März, Donnerstag

    Zeit Temperatur Niederschläge Wind Luftdruck Luftfeuchtigkeit
    00:00 +1°C° 0 mm 1 m/S 632 mmHg 79%
    01:00 +1°C° 0 mm 1 m/S 632 mmHg 79%
    02:00 +1°C° 0 mm 1 m/S 632 mmHg 80%
    03:00 +1°C° 0 mm 1 m/S 632 mmHg 80%
    04:00 0°C° 0 mm 1 m/S 632 mmHg 80%
    05:00 0°C° 0 mm 1 m/S 631 mmHg 81%
    06:00 0°C° 0 mm 1 m/S 631 mmHg 81%
    07:00 +1°C° 0 mm 1 m/S 632 mmHg 81%
    08:00 +2°C° 0 mm 1 m/S 632 mmHg 80%
    09:00 +3°C° 0 mm 1 m/S 632 mmHg 79%
    10:00 +4°C° 0 mm 1 m/S 632 mmHg 79%
    11:00 +5°C° 0 mm 1 m/S 632 mmHg 79%
    12:00 +6°C° 0 mm 1 m/S 632 mmHg 79%
    13:00 +6°C° 0 mm 1 m/S 632 mmHg 79%
    14:00 +6°C° 0 mm 1 m/S 632 mmHg 79%
    15:00 +6°C° 0 mm 1 m/S 632 mmHg 79%
    16:00 +6°C° 0 mm 1 m/S 632 mmHg 79%
    17:00 +5°C° 0 mm 1 m/S 632 mmHg 79%
    18:00 +4°C° 0 mm 1 m/S 631 mmHg 78%
    19:00 +4°C° 0 mm 1 m/S 632 mmHg 80%
    20:00 +3°C° 0 mm 1 m/S 632 mmHg 82%
    21:00 +2°C° 0 mm 0 m/S 632 mmHg 83%
    22:00 +2°C° 0 mm 0 m/S 633 mmHg 84%
    23:00 +1°C° 0 mm 0 m/S 633 mmHg 85%
    Mehr zeigen